Location: ?????????
(44.2517°N, 135.2292°E)
Time: 02:30:58
(UTC+00:00)

CZ-2C R/B - Pass Details

Date: 19 May 2025
Orbit: 782 x 867 km, 98.4° (Epoch: 14 June)

Event Time Altitude Azimuth Distance (km) Brightness Sun altitude
Exits shadow 17:32:08 16° 263° (W) 1,959 4.2 -16.5°
Maximum altitude 17:32:38 16° 270° (W) 1,948 4.2 -16.5°
Drops below altitude 10° 17:35:48 10° 308° (NW) 2,349 5.0 -16.1°
Sets 17:39:03 0° 330° (NNW) 3,280 6.0 -15.7°
